Regional Weather Roundup
Issued by NWS

Home | Current Version | Previous Version | Text Only | Print | Product List | Glossary Off
Versions: 1 2 3 4 5 6 7 8 9 10 11 12 13 14 15 16 17 18 19 20 21 22 23 24 25 26 27 28 29 30 31 32 33 34 35 36 37 38 39 40 41 42 43 44 45 46 47 48 49 50

174
ASUS45 KPSR 282010
RWRAZ

ARIZONA HOURLY REGIONAL WEATHER ROUNDUP
NATIONAL WEATHER SERVICE PHOENIX AZ
100 PM MST THU APR 28 2016

NOTE: FAIR INDICATES FEW OR NO CLOUDS BELOW 12,000 FEET WITH NO
SIGNIFICANT WEATHER AND/OR OBSTRUCTIONS TO VISIBILITY.

AZZ001>003-036-282100-
NORTHWEST ARIZONA

CITY           SKY/WX    TMP DP  RH WIND       PRES   REMARKS
BULLHEAD CITY  PTSUNNY   66  45  45 E7        29.73S
KINGMAN        CLOUDY    51  42  71 S12       29.75F
$$

AZZ004>008-015-016-018-282100-
NORTH CENTRAL ARIZONA

CITY           SKY/WX    TMP DP  RH WIND       PRES   REMARKS
GRAND CANYON   MIX PCPN  38  35  89 S8        29.78S FOG     WCI  32
WILLIAMS       CLOUDY    43  34  70 W9G16     29.84F
PRESCOTT       CLOUDY    48  37  65 S14       29.77S
FLAGSTAFF      MOSUNNY   43  25  49 W12G29    29.77R
PAYSON         MOSUNNY   55  19  24 SW18G25   29.79S
PAGE           CLOUDY    53  39  59 N5        29.71S
$$

AZZ009>014-017-282100-
NORTHEAST ARIZONA

CITY           SKY/WX    TMP DP  RH WIND       PRES   REMARKS
WINSLOW        MOSUNNY   60  29  30 S32G46    29.72F
SAINT JOHNS    SUNNY     66   6   9 SW26G45   29.71S
WINDOW ROCK    MOSUNNY   64  14  14 SW33G45   29.73F
SHOW LOW       SUNNY     57  10  15 SW32G39   29.77R
$$

AZZ023-282100-
GREATER PHOENIX AREA

CITY           SKY/WX    TMP DP  RH WIND       PRES   REMARKS
PHOENIX        MOSUNNY   74  24  15 SW17      29.71F
BUCKEYE        SUNNY     72  23  16 SW13G22   29.74S
GLENDALE       MOSUNNY   73  23  15 S12G28    29.73F
LUKE AFB       SUNNY     72  23  16 SW16      29.71S
DEER VALLEY    SUNNY     71  18  13 SW18G29   29.72S
SCOTTSDALE     SUNNY     71  23  16 SW13G25   29.73F
MESA-GATEWAY   MOSUNNY   72  28  20 W13G29    29.73F
CHANDLER       MOSUNNY   73  25  16 S17G29    29.72F
$$

AZZ027-028-282100-
SOUTHWEST MARICOPA COUNTY AND PINAL COUNTY

CITY           SKY/WX    TMP DP  RH WIND       PRES   REMARKS
CASA GRANDE    SUNNY     73  28  19 W18G24    29.73F
GILA BEND      SUNNY     71  25  17 W14G23    29.73F
$$

AZZ503-504-507>509-282100-
SOUTHEAST ARIZONA

CITY           SKY/WX    TMP DP  RH WIND       PRES   REMARKS
TUCSON         MOSUNNY   79  23  12 W23G36    29.71F
DAVIS-MONTHAN  MOSUNNY   77  23  13 W18G29    29.70F
RYAN FIELD     SUNNY     79  27  14 SW15G31   29.71F
NOGALES        SUNNY     74  26  16 S23G38    29.77F
SIERRA VISTA   SUNNY     72  16  11 S15G36    29.77F
DOUGLAS        SUNNY     77  14   9 SW26G37   29.78F
SAFFORD        SUNNY     82   9   6 SW29G38   29.66F
$$

AZZ020-021-025-026-031-282100-
SOUTHWEST ARIZONA

CITY           SKY/WX    TMP DP  RH WIND       PRES   REMARKS
YUMA           MOSUNNY   74  37  26 W17G23    29.75F
$$

CAZ031-033-041-043-047-048-061-282100-
SOUTHERN CALIFORNIA

CITY           SKY/WX    TMP DP  RH WIND       PRES   REMARKS
DOWNTOWN L.A.  SUNNY     68  46  45 MISG      29.84S
L.A. AIRPORT   MOSUNNY   64  45  49 W15       29.87S
SAN DIEGO      PTSUNNY   64  47  53 W9G18     29.92S
BURBANK        SUNNY     67  41  38 SW14      29.82F
ONTARIO        PTSUNNY   66  41  40 W7        29.85F
RIVERSIDE      PTSUNNY   66  42  41 CALM      29.84F
PALM SPRINGS   MOSUNNY   75  38  26 NW14G29   29.73F
EL CENTRO NAS  PTSUNNY   75  36  24 W22G35    29.76F
IMPERIAL       MOSUNNY   75  38  26 SW22G30   29.74F
BLYTHE         MOSUNNY   74  40  29 W13G23    29.72S
NEEDLES        PTSUNNY   66  49  54 S13       29.70F
$$

NVZ020-UTZ003-282100-
SOUTHERN NEVADA-UTAH

CITY           SKY/WX    TMP DP  RH WIND       PRES   REMARKS
LAS VEGAS      CLOUDY    65  44  46 E7        29.65S
SALT LAKE CITY CLOUDY    54  35  48 VRB5      29.73S
$$

NMZ009-TXZ055-282100-
NEW MEXICO-WEST TEXAS

CITY           SKY/WX    TMP DP  RH WIND       PRES   REMARKS
ALBUQUERQUE    MOSUNNY   71  13  10 S20G26    29.75S
EL PASO        MOSUNNY   82  12   7 W24G31    29.76F
$$


........................KEY........................
SKY/WX - SKY CONDITION/WEATHER
TMP    - TEMPERATURE IN FAHRENHEIT
DP     - DEW POINT IN FAHRENHEIT
RH     - RELATIVE HUMIDITY IN PERCENT
WIND   - DIRECTION AND SPEED IN MILES PER HOUR (MPH)
VRB    - VARIABLE WIND DIRECTION
PRES   - MEAN SEA LEVEL PRESSURE IN INCHES OF MERCURY
         F - FALLING PRESSURE   R - RISING PRESSURE
         S - STEADY PRESSURE
VSB    - VISIBILITY IN MILES
HX     - HEAT INDEX IN FAHRENHEIT
WCI    - WIND CHILL INDEX IN FAHRENHEIT
TC     - TEMPERATURE IN CELSIUS WHICH IS ALSO KNOWN AS
         TEMPERATURE IN CENTIGRADE
AFB    - AIR FORCE BASE
         LUKE AFB IS LUKE AIR FORCE BASE
         DAVIS-MONTHAN IS DAVIS-MONTHAN AIR FORCE BASE
NAS    - NAVAL AIR STATION
         EL CENTRO NAS IS EL CENTRO NAVAL AIR STATION
N/A    - NOT AVAILABLE





USA.gov is the U.S. government's official web portal to all federal, state and local government web resources and services.